Location: Dzierzno
(50.6159°N, 19.2852°E)
Time: 23:45:15
(UTC+00:00)

SL-16 R/B - Pass Details

Date: 18 November 2025
Orbit: 985 x 1006 km, 99.8° (Epoch: 05 December)

Event Time Altitude Azimuth Distance (km) Brightness Sun altitude
Rises 16:43:04 0° 12° (NNE) 3,748 5.3 -17.2°
Reaches altitude 10° 16:45:44 10° 5° (N) 2,794 4.8 -17.6°
Maximum altitude 16:51:22 37° 301° (WNW) 1,529 4.0 -18.5°
Drops below altitude 10° 16:56:58 10° 237° (WSW) 2,772 5.8 -19.4°
Sets 16:59:37 0° 229° (SW) 3,716 6.5 -19.8°
